Location: 相模原市立博物館
(35.5593°N, 139.3931°E)
Time: 06:10:04
(UTC+09:00)

XW-2B - Visible Passes

Search period start: 22 January 2022 00:00
Search period end: 01 February 2022 00:00
Orbit: 502 x 522 km, 97.5° (Epoch: 21 January)

Date Brightness Start Highest point End Pass type
(mag) Time Alt. Az. Time Alt. Az. Time Alt. Az.
22 Jan ? 05:23:57 10° NNE 05:27:31 45° E 05:31:03 10° S visible
22 Jan ? 17:34:36 10° SSW 17:37:56 30° W 17:41:18 10° NW visible
23 Jan ? 05:08:25 10° NE 05:11:36 27° E 05:14:47 10° SSE visible
24 Jan ? 04:53:10 10° NE 04:55:40 17° E 04:58:09 10° SE visible
25 Jan ? 04:38:51 10° E 04:39:41 11° E 04:40:30 10° ESE visible
25 Jan ? 06:10:22 10° N 06:13:48 38° WNW 06:17:14 10° SW visible
26 Jan ? 05:54:19 10° N 05:57:59 64° WNW 06:01:38 10° SSW visible
26 Jan ? 18:06:54 10° WSW 18:08:34 13° W 18:10:15 10° WNW visible
27 Jan ? 05:38:25 10° NNE 05:42:06 75° E 05:45:47 10° S visible
27 Jan ? 17:49:47 10° SW 17:52:35 20° W 17:55:23 10° NW visible
28 Jan ? 05:22:39 10° NNE 05:26:12 43° E 05:29:43 10° S visible
28 Jan ? 17:33:15 10° SSW 17:36:37 32° W 17:39:59 10° NNW visible
29 Jan ? 05:07:05 10° NE 05:10:15 26° E 05:13:23 10° SSE visible
30 Jan ? 04:51:50 10° NE 04:54:15 16° E 04:56:39 10° SE visible
31 Jan ? 04:37:52 10° E 04:38:13 10° E 04:38:34 10° E visible
31 Jan ? 06:08:53 10° N 06:12:21 40° WNW 06:15:50 10° SW visible
